William P Hobby Airport
KHOU : now visible

Aeroporto :











RITROVATECI SU...

 
LOGIN :

Iscrizione | Disclaimer

   EN    FR    IT 

 









Sommario :    VFR   VFR Marginale   IFR   IFR Intensivo   IFR Molto Intensivo
Visibilità : 
Base nubi : 
>= 8 km
>= 3000ft
5 / 8 km
1000 / 3000 ft
1500m / 5 km
500 / 1000 ft
800 / 1500m
200 / 500 ft
< 800m
< 200 ft
Simboli :   Temporali  Nebbia  Neve Forte  Precipitazioni Forti  Vento > 20 kt







- Altitudine del aeroporto : 46 ft
- Codice IATA : HOU


KHOU - William P Hobby

ULTIMO METAR :
  • 260853Z 11004KT 10SM FEW095 FEW120 OVC170 24/22 A3002 RMK AO2 SLP170 T02390222 56007

METARs OBSOLETI :
  • 260753Z 00000KT 10SM OVC130 24/22 A3003 RMK AO2 SLP173 T02390217
  • 260653Z 11004KT 10SM SCT100 OVC150 24/22 A3001 RMK AO2 SLP168 T02390217

TAF KHOU
Valido dal 26 a 09 ore il 27 a 06 ore UTC


260918Z 2609/2706 VRB04KT P6SM BKN130
FM261300 12006KT P6SM FEW030 OVC250
FM261800 13008KT P6SM VCTS SCT035CB BKN130
FM262300 12007KT P6SM FEW040 BKN120
FIR KZHU / America del Nord



MetMap, La meteo Aeronautica in un colpo d'occhio ! - Copyright ORBIFLY Dicembre 2007 - Disclaimer

ORBIFLY MET'MAP TEAM :

Programmazione e sviluppo : Alexandra Zaïnal
Concezione e sviluppo : Baudouin d'Aumeries
Co-Programmazione e sviluppo : Marc-Olivier Méhu
Supporto tecnico e logistico : Manuel Goepfert
Aiuto per la traduzione : Arnaldo La Scala

Contatto : metmap@orbifly.com




FONTI E CREDITI :

   NOAA       Earth
Advisory